• Currently

    Reported at Minneapolis, Minneapolis-St. Paul International Airport, MN
    9:53 AM CST MON MAY 29 2017
  • 59°F15°C
  • Overcast
    Overcast
  • Feels Like:59°F15°CDew Point:48°F9°CHumidity:68% Winds:NW 15 mph G 2124 kph G 34
    Pressure:29.8 in1009 hPaVisibility:10.00 miles16090.00 meters
Time Weather Temp Dew Point
Humidity Winds Visibility Pressure Precipitation
1 hr 24 hr
Sunday, May 28
23:53 23:53 Partly Cloudy Partly Cloudy 66°F19°C 46°F8°C 49% SSW 7 mphSSW 11 kph 10.0 miles16.1 km 29.8 in1009 hPa 0.00 in0.00 mm --
22:53 22:53 Mostly Cloudy Mostly Cloudy 67°F19°C 46°F8°C 47% SW 9 mphSW 15 kph 10.0 miles16.1 km 29.83 in1010 hPa 0.00 in0.00 mm --
21:53 21:53 Mostly Cloudy Mostly Cloudy 67°F19°C 48°F9°C 51% S 6 mphS 9 kph 10.0 miles16.1 km 29.83 in1010 hPa 0.00 in0.00 mm --
20:53 20:53 Mostly Cloudy Mostly Cloudy 68°F20°C 47°F8°C 47% SSW 5 mphSSW 7 kph 10.0 miles16.1 km 29.83 in1010 hPa 0.00 in0.00 mm --
19:53 19:53 Mostly Cloudy Mostly Cloudy 70°F21°C 46°F8°C 42% SW 7 mphSW 11 kph 10.0 miles16.1 km 29.85 in1011 hPa 0.00 in0.00 mm --
18:53 18:53 Partly Cloudy Partly Cloudy 71°F22°C 47°F8°C 42% SW 8 mphSW 13 kph 10.0 miles16.1 km 29.85 in1011 hPa 0.00 in0.00 mm --
17:53 17:53 Mostly Cloudy Mostly Cloudy 70°F21°C 49°F9°C 47% WSW 9 mphWSW 15 kph 10.0 miles16.1 km 29.85 in1011 hPa 0.00 in0.00 mm --
16:53 16:53 Mostly Cloudy Mostly Cloudy 69°F21°C 48°F9°C 47% SSW 7 mphSSW 11 kph 10.0 miles16.1 km 29.85 in1011 hPa 0.00 in0.00 mm --
15:53 15:53 Cloudy Cloudy 69°F21°C 50°F10°C 51% S 12 mphS 19 kph 10.0 miles16.1 km 29.88 in1012 hPa 0.00 in0.00 mm --
14:53 14:53 Cloudy Cloudy 69°F21°C 48°F9°C 47% W 8 mphW 13 kph 10.0 miles16.1 km 29.88 in1012 hPa 0.00 in0.00 mm --
13:53 13:53 Mostly Cloudy Mostly Cloudy 69°F21°C 44°F7°C 41% WSW 7 mphWSW 11 kph 10.0 miles16.1 km 29.91 in1013 hPa 0.00 in0.03 mm --
12:53 12:53 Cloudy Cloudy 69°F21°C 43°F6°C 39% WSW 7 mphWSW 11 kph 10.0 miles16.1 km 29.94 in1014 hPa 0.00 in0.00 mm --
11:53 11:53 Cloudy Cloudy 70°F21°C 43°F6°C 38% WNW 8 mphWNW 13 kph 10.0 miles16.1 km 29.91 in1013 hPa 0.00 in0.00 mm --
10:53 10:53 Mostly Cloudy Mostly Cloudy 70°F21°C 43°F6°C 38% N 5 mphN 7 kph 10.0 miles16.1 km 29.91 in1013 hPa 0.00 in0.00 mm --
09:53 09:53 Mostly Cloudy Mostly Cloudy 69°F21°C 46°F8°C 44% NNW 7 mphNNW 11 kph 10.0 miles16.1 km 29.88 in1012 hPa 0.00 in0.00 mm --
08:53 08:53 Partly Cloudy Partly Cloudy 67°F19°C 46°F8°C 47% NW 8 mphNW 13 kph 10.0 miles16.1 km 29.88 in1012 hPa 0.00 in0.00 mm --
07:53 07:53 Partly Cloudy Partly Cloudy 63°F17°C 49°F9°C 60% NNW 3 mphNNW 6 kph 10.0 miles16.1 km 29.88 in1012 hPa 0.00 in0.00 mm --
06:53 06:53 Mostly Sunny Mostly Sunny 57°F14°C 48°F9°C 72% SW 3 mphSW 6 kph 10.0 miles16.1 km 29.88 in1012 hPa 0.00 in0.00 mm --
05:53 05:53 Sunny Sunny 55°F13°C 47°F8°C 74% WSW 3 mphWSW 6 kph 10.0 miles16.1 km 29.88 in1012 hPa 0.00 in0.00 mm --
04:53 04:53 Clear Clear 56°F13°C 47°F8°C 72% CalmCalm 10.0 miles16.1 km 29.88 in1012 hPa 0.00 in0.00 mm --
03:53 03:53 Clear Clear 58°F14°C 47°F8°C 67% WSW 5 mphWSW 7 kph 10.0 miles16.1 km 29.88 in1012 hPa 0.00 in0.00 mm --
02:53 02:53 Clear Clear 61°F16°C 46°F8°C 58% CalmCalm 10.0 miles16.1 km 29.85 in1011 hPa 0.00 in0.00 mm --
01:53 01:53 Clear Clear 61°F16°C 45°F7°C 56% CalmCalm 10.0 miles16.1 km 29.85 in1011 hPa 0.00 in0.00 mm --
00:53 00:53 Clear Clear 62°F17°C 46°F8°C 56% WNW 5 mphWNW 7 kph 10.0 miles16.1 km 29.85 in1011 hPa 0.00 in0.00 mm --